Time,TemperatureF,DewpointF,PressureIn,WindDirection,WindDirectionDegrees,WindSpeedMPH,WindSpeedGustMPH,Humidity,HourlyPrecipIn,Conditions,Clouds,dailyrainin,SoftwareType,DateUTC
2013-08-22 00:23:00,76.0,69.0,30.02,SSE,155,1.0,3.0,78,0.00,,,0.00,,2013-08-22 05:23:00,
2013-08-22 00:34:00,76.0,69.0,30.02,SSE,155,1.0,3.0,78,0.00,,,0.00,,2013-08-22 05:34:00,
2013-08-22 00:43:00,76.0,69.0,30.02,SSE,155,1.0,3.0,78,0.00,,,0.00,,2013-08-22 05:43:00,
2013-08-22 00:53:00,76.0,69.0,30.02,SSE,155,1.0,3.0,78,0.00,,,0.00,,2013-08-22 05:53:00,
2013-08-22 01:02:00,76.0,69.0,30.02,SSE,155,1.0,3.0,78,0.00,,,0.00,,2013-08-22 06:02:00,
2013-08-22 02:03:00,75.0,68.0,30.04,SSE,168,2.0,6.0,80,0.00,,,0.00,,2013-08-22 07:03:00,
2013-08-22 02:22:00,75.0,68.0,30.04,SSE,168,2.0,6.0,80,0.00,,,0.00,,2013-08-22 07:22:00,
2013-08-22 02:32:00,75.0,68.0,30.04,SSE,168,2.0,6.0,80,0.00,,,0.00,,2013-08-22 07:32:00,
2013-08-22 02:42:00,75.0,68.0,30.04,SSE,168,2.0,6.0,80,0.00,,,0.00,,2013-08-22 07:42:00,
2013-08-22 02:53:00,75.0,68.0,30.04,SSE,168,2.0,6.0,80,0.00,,,0.00,,2013-08-22 07:53:00,
2013-08-22 04:02:00,74.0,68.0,30.04,SSW,205,1.0,3.0,82,0.00,,,0.00,,2013-08-22 09:02:00,
2013-08-22 04:22:00,74.0,68.0,30.04,SSW,205,1.0,3.0,82,0.00,,,0.00,,2013-08-22 09:22:00,
2013-08-22 04:33:00,74.0,68.0,30.04,SSW,205,1.0,3.0,82,0.00,,,0.00,,2013-08-22 09:33:00,
2013-08-22 04:43:00,74.0,68.0,30.04,SSW,205,1.0,3.0,82,0.00,,,0.00,,2013-08-22 09:43:00,
2013-08-22 04:54:00,74.0,68.0,30.04,SSW,205,1.0,3.0,82,0.00,,,0.00,,2013-08-22 09:54:00,
2013-08-22 08:02:00,73.0,68.0,30.09,South,176,0.0,2.0,83,0.00,,,0.00,,2013-08-22 13:02:00,
2013-08-22 08:22:00,73.0,68.0,30.09,South,176,0.0,2.0,83,0.00,,,0.00,,2013-08-22 13:22:00,
2013-08-22 08:32:00,73.0,68.0,30.09,South,176,0.0,2.0,83,0.00,,,0.00,,2013-08-22 13:32:00,
2013-08-22 08:42:00,73.0,68.0,30.09,South,176,0.0,2.0,83,0.00,,,0.00,,2013-08-22 13:42:00,
2013-08-22 08:52:00,73.0,68.0,30.09,South,176,0.0,2.0,83,0.00,,,0.00,,2013-08-22 13:52:00,
2013-08-22 10:02:00,81.0,67.0,30.08,SW,217,3.0,8.0,63,0.00,,,0.00,,2013-08-22 15:02:00,
2013-08-22 10:22:00,81.0,67.0,30.08,SW,217,3.0,8.0,63,0.00,,,0.00,,2013-08-22 15:22:00,
2013-08-22 10:34:00,81.0,67.0,30.08,SW,217,3.0,8.0,63,0.00,,,0.00,,2013-08-22 15:34:00,
2013-08-22 10:43:00,81.0,67.0,30.08,SW,217,3.0,8.0,63,0.00,,,0.00,,2013-08-22 15:43:00,
2013-08-22 10:55:00,81.0,67.0,30.08,SW,217,3.0,8.0,63,0.00,,,0.00,,2013-08-22 15:55:00,
2013-08-22 12:24:00,85.0,68.0,30.07,West,271,2.0,7.0,57,0.00,,,0.00,,2013-08-22 17:24:00,
2013-08-22 12:33:00,85.0,68.0,30.07,West,271,2.0,7.0,57,0.00,,,0.00,,2013-08-22 17:33:00,
2013-08-22 12:43:00,85.0,68.0,30.07,West,271,2.0,7.0,57,0.00,,,0.00,,2013-08-22 17:43:00,
2013-08-22 12:53:00,85.0,68.0,30.07,West,271,2.0,7.0,57,0.00,,,0.00,,2013-08-22 17:53:00,
2013-08-22 13:02:00,85.0,68.0,30.07,West,271,2.0,7.0,57,0.00,,,0.00,,2013-08-22 18:02:00,
2013-08-22 14:02:00,88.0,69.0,30.05,SSE,156,2.0,6.0,54,0.00,,,0.00,,2013-08-22 19:02:00,
2013-08-22 14:22:00,88.0,69.0,30.05,SSE,156,2.0,6.0,54,0.00,,,0.00,,2013-08-22 19:22:00,
2013-08-22 14:33:00,88.0,69.0,30.05,SSE,156,2.0,6.0,54,0.00,,,0.00,,2013-08-22 19:33:00,
2013-08-22 14:42:00,88.0,69.0,30.05,SSE,156,2.0,6.0,54,0.00,,,0.00,,2013-08-22 19:42:00,
2013-08-22 14:53:00,88.0,69.0,30.05,SSE,156,2.0,6.0,54,0.00,,,0.00,,2013-08-22 19:53:00,
2013-08-22 16:02:00,92.0,69.0,30.03,SE,127,0.0,5.0,47,0.00,,,0.00,,2013-08-22 21:02:00,
2013-08-22 16:22:00,92.0,69.0,30.03,SE,127,0.0,5.0,47,0.00,,,0.00,,2013-08-22 21:22:00,
2013-08-22 16:34:00,92.0,69.0,30.03,SE,127,0.0,5.0,47,0.00,,,0.00,,2013-08-22 21:34:00,
2013-08-22 16:44:00,92.0,69.0,30.03,SE,127,0.0,5.0,47,0.00,,,0.00,,2013-08-22 21:44:00,
2013-08-22 16:54:00,92.0,69.0,30.03,SE,127,0.0,5.0,47,0.00,,,0.00,,2013-08-22 21:54:00,
2013-08-22 18:02:00,90.0,69.0,30.01,SSW,203,2.0,4.0,50,0.00,,,0.00,,2013-08-22 23:02:00,
2013-08-22 18:23:00,90.0,69.0,30.01,SSW,203,2.0,4.0,50,0.00,,,0.00,,2013-08-22 23:23:00,
2013-08-22 18:33:00,90.0,69.0,30.01,SSW,203,2.0,4.0,50,0.00,,,0.00,,2013-08-22 23:33:00,
2013-08-22 18:42:00,90.0,69.0,30.01,SSW,203,2.0,4.0,50,0.00,,,0.00,,2013-08-22 23:42:00,
2013-08-22 18:53:00,90.0,69.0,30.01,SSW,203,2.0,4.0,50,0.00,,,0.00,,2013-08-22 23:53:00,
2013-08-22 22:02:00,80.0,71.0,30.03,South,187,0.0,0.0,74,0.00,,,0.00,,2013-08-23 03:02:00,
2013-08-22 22:23:00,80.0,71.0,30.03,South,187,0.0,0.0,74,0.00,,,0.00,,2013-08-23 03:23:00,
2013-08-22 22:34:00,80.0,71.0,30.03,South,187,0.0,0.0,74,0.00,,,0.00,,2013-08-23 03:34:00,
2013-08-22 22:55:00,80.0,71.0,30.03,South,187,0.0,0.0,74,0.00,,,0.00,,2013-08-23 03:55:00,